Flag for Portugal Weather past 2 weeks in Porto, Portugal

Now
52 °F

Scattered clouds.


Feels Like: 46 °F
Forecast: 42 / 52 °F
Wind: 17 mph from North

Location: Porto / Pedras Rubras

Current Time: Jan 31, 2015 at 2:13:28 PM

Latest Report: Jan 31, 2015 at 1:30 PM


Visibility: N/A

Pressure: 29.83 "Hg

Humidity: 67%

Dew point: 41 °F

Location of PortoLocation

Historic Weather in Porto — Graph

°F

Porto temperature yesterday

Maximum temperature yesterday: 55 °F (at 12:00 AM)
Minimum temperature yesterday: 55 °F (at 12:00 AM)
Average temperature yesterday: 55 °F

Past Weeks' High & Low Weather Summary

 TemperatureHumidityPressure
High59 °F (Jan 24, 3:00 PM)100% (Jan 16, 6:00 PM)30.48 "Hg (Jan 16, 6:00 PM)
Low34 °F (Jan 26, 5:00 AM)55% (Jan 27, 12:30 PM)29.59 "Hg (Jan 31, 12:30 AM)
Average48 °F90%30.16 "Hg
* Reported Jan 16 12:00 Noon — Jan 31 12:30 PM, Porto, Weather by CustomWeather, © 2014

Note: Actual official high and low records may vary slightly from our data, if they occured in-between our weather recording intervals... More about our weather records

Advertising

Porto weather history for previous 24 hours

 ConditionsComfort  
Time TempWeatherWind HumidityBarometerVisibility
12:30 PM
Jan 31
48 °FSprinkles. Scattered clouds.18 mph76%29.83 "HgN/A
12:00 PM48 °FSprinkles. Broken clouds.14 mph76%29.83 "HgN/A
11:30 AM48 °FThunderstorms. Broken clouds.21 mph82%29.83 "Hg6 mi
11:00 AM50 °FPassing clouds.14 mph76%29.80 "HgN/A
10:30 AM48 °FPartly sunny.16 mph76%29.80 "HgN/A
10:00 AM50 °FSprinkles. Scattered clouds.15 mph71%29.77 "HgN/A
9:30 AM50 °FSprinkles. Scattered clouds.9 mph76%29.77 "HgN/A
9:00 AM50 °FScattered clouds.16 mph71%29.77 "HgN/A
8:30 AM48 °FScattered clouds.8 mph82%29.74 "HgN/A
8:00 AM48 °FScattered clouds.15 mph76%29.74 "HgN/A
7:30 AM46 °FPassing clouds.14 mph87%29.71 "HgN/A
7:00 AM50 °FPassing clouds.17 mph76%29.68 "HgN/A
6:30 AM50 °FPassing clouds.20 mph76%29.68 "HgN/A
6:00 AM50 °FSprinkles. Passing clouds.17 mph82%29.65 "HgN/A
5:30 AM50 °FPassing clouds.15 mph82%29.62 "HgN/A
5:00 AM52 °FPassing clouds.18 mph77%29.62 "HgN/A
4:30 AM54 °FPassing clouds.20 mph82%29.62 "HgN/A
4:00 AM54 °FPassing clouds.16 mph82%29.59 "HgN/A
3:00 AM54 °FSprinkles. Passing clouds.16 mph88%29.59 "HgN/A
2:30 AM55 °FSprinkles. Passing clouds.16 mph88%29.59 "HgN/A
2:00 AM54 °FSprinkles. Passing clouds.17 mph94%29.59 "HgN/A
1:30 AM52 °FHeavy rain. Partly cloudy.17 mph100%29.62 "Hg4 mi
1:00 AM54 °FRain. Passing clouds.17 mph100%29.59 "Hg4 mi
12:30 AM55 °FRain. Partly cloudy.15 mph100%29.59 "Hg4 mi
12:00 AM55 °FLight rain. Passing clouds.14 mph100%29.62 "Hg4 mi
11:30 PM
Jan 30
55 °FLight rain. Passing clouds.13 mph100%29.62 "Hg4 mi
11:00 PM55 °FLight rain. Passing clouds.13 mph100%29.62 "Hg4 mi
10:30 PM55 °FLight rain. Passing clouds.13 mph100%29.65 "Hg4 mi
10:00 PM55 °FLight rain. Partly cloudy.13 mph100%29.65 "Hg4 mi
9:00 PM55 °FDrizzle. Fog.14 mph100%29.68 "Hg2 mi
8:30 PM55 °FDrizzle. Fog.15 mph100%29.65 "Hg3 mi
8:00 PM55 °FDrizzle. Mostly cloudy.13 mph100%29.68 "Hg4 mi
7:30 PM55 °FDrizzle. Low clouds.12 mph100%29.68 "Hg3 mi
7:00 PM55 °FDrizzle. Fog.14 mph100%29.68 "Hg2 mi
6:30 PM55 °FDrizzle. Fog.13 mph100%29.68 "Hg3 mi
6:00 PM55 °FDrizzle. Fog.13 mph100%29.68 "Hg2 mi
5:30 PM55 °FDrizzle. Fog.12 mph100%29.68 "Hg2 mi
5:00 PM55 °FDrizzle. Fog.13 mph100%29.68 "Hg2 mi
4:30 PM55 °FDrizzle. Fog.13 mph100%29.71 "Hg2 mi
4:00 PM55 °FDrizzle. Fog.13 mph100%29.71 "Hg2 mi
3:30 PM55 °FDrizzle. Fog.13 mph100%29.74 "Hg1 mi
3:00 PM55 °FDrizzle. Fog.13 mph100%29.74 "Hg1 mi
2:30 PM55 °FDrizzle. Fog.14 mph100%29.74 "Hg2 mi
2:00 PM55 °FDrizzle. Fog.13 mph100%29.77 "Hg2 mi
Weather by CustomWeather, © 2014

See weather overviewHow to use our weather pages